Weather History for KTTF - March, 2013

Change the Weather History Date:

Sunday, March 10, 2013

  Actual Average (KDTW) Record (KDTW)
Temperature  
Mean Temperature 50 °F 35 °F  
Max Temperature 66 °F 43 °F 70 °F (1925)
Min Temperature 35 °F 27 °F 4 °F (1877)
Degree Days  
Heating Degree Days 14 30  
Month to date heating degree days 318  
Since 1 July heating degree days 4871  
Cooling Degree Days 0 0  
Month to date cooling degree days 0  
Year to date cooling degree days 0  
Moisture  
Dew Point 39 °F    
Average Humidity 61    
Maximum Humidity 93    
Minimum Humidity 39    
Precipitation  
Precipitation 0.00 in 0.07 in 0.97 in (2009)
Month to date precipitation 0.71  
Year to date precipitation 4.69  
Snow  
Snow 0.00 in 0.20 in 7.50 in (1993)
Month to date snowfall 2.9  
Since 1 July snowfall 36.8  
Snow Depth -    
Sea Level Pressure  
Sea Level Pressure 29.91 in    
Wind  
Wind Speed 7 mph (South)    
Max Wind Speed 16 mph    
Max Gust Speed 24 mph    
Visibility 10 miles    
Events Rain    
T = Trace of Precipitation, MM = Missing Value Source: NWS Daily Summary

Daily Weather History Graph

Daily Weather History Graph

Search for Another Location

Airport or City:

Trip Planner

Search our weather history database for the weather conditions in past years. The results will help you decide how hot, cold, wet, or windy it might be!

Date:

Astronomy

Mar. 10, 2013 Rise Set
Actual Time 7:53 AM EDT 7:34 PM EDT
Civil Twilight 7:25 AM EDT 8:02 PM EDT
Nautical Twilight 6:53 AM EDT 8:35 PM EDT
Astronomical Twilight 6:20 AM EDT 9:07 PM EDT
Moon 6:53 AM EDT (3/10) 6:41 PM EDT (3/10)
Length of Visible Light 12h 36m
Length of Day
11h 41m
Waning Crescent, 2% of the Moon is Illuminated
Mar 10
Waning Crescent
Mar 11
New
Mar 19
First Quarter
Mar 27
Full
Apr 3
Last Quarter

Hourly Weather History & Observations

Time (EDT) Temp. Windchill Dew Point Humidity Pressure Visibility Wind Dir Wind Speed Gust Speed Precip Events Conditions
12:15 AM 35.6 °F 32.8 °F 33.8 °F 93% 30.02 in 10.0 mi East 3.5 mph - N/A   Clear
12:35 AM 35.6 °F 32.8 °F 33.8 °F 93% 30.02 in 10.0 mi ESE 3.5 mph - N/A   Clear
12:55 AM 37.4 °F 33.8 °F 33.8 °F 87% 30.01 in 10.0 mi East 4.6 mph - N/A   Clear
1:15 AM 37.4 °F 34.9 °F 33.8 °F 87% 30.01 in 10.0 mi ESE 3.5 mph - N/A   Scattered Clouds
1:35 AM 37.4 °F 33.8 °F 33.8 °F 87% 30.00 in 10.0 mi East 4.6 mph - N/A   Clear
1:55 AM 37.4 °F 33.8 °F 33.8 °F 87% 30.00 in 10.0 mi ESE 4.6 mph - N/A   Clear
3:15 AM 37.4 °F 33.8 °F 33.8 °F 87% 29.99 in 10.0 mi ESE 4.6 mph - N/A   Clear
3:35 AM 39.2 °F 35.0 °F 33.8 °F 81% 29.98 in 10.0 mi ESE 5.8 mph - N/A   Scattered Clouds
3:55 AM 39.2 °F 35.9 °F 33.8 °F 81% 29.97 in 10.0 mi ESE 4.6 mph - N/A   Scattered Clouds
4:16 AM 39.2 °F - 33.8 °F 81% 29.97 in 10.0 mi Calm Calm - N/A   Clear
4:51 AM 39.2 °F 37.0 °F 33.8 °F 81% 29.96 in 10.0 mi ESE 3.5 mph - N/A   Clear
5:11 AM 39.2 °F 37.0 °F 33.8 °F 81% 29.96 in 10.0 mi SE 3.5 mph - N/A   Mostly Cloudy
5:31 AM 41.0 °F - 33.8 °F 76% 29.96 in 10.0 mi Calm Calm - N/A   Mostly Cloudy
5:51 AM 39.2 °F - 33.8 °F 81% 29.96 in 10.0 mi Calm Calm - N/A   Scattered Clouds
6:11 AM 39.2 °F - 33.8 °F 81% 29.96 in 10.0 mi Calm Calm - N/A   Mostly Cloudy
6:31 AM 41.0 °F 38.0 °F 35.6 °F 81% 29.96 in 10.0 mi SE 4.6 mph - N/A   Overcast
6:51 AM 42.8 °F 40.1 °F 35.6 °F 76% 29.96 in 10.0 mi SSE 4.6 mph - N/A Rain Rain
7:11 AM 42.8 °F 40.1 °F 37.4 °F 81% 29.96 in 7.0 mi SSE 4.6 mph - N/A Rain Light Rain
7:32 AM 42.8 °F 40.1 °F 37.4 °F 81% 29.96 in 10.0 mi SSE 4.6 mph - N/A   Overcast
8:12 AM 42.8 °F 40.1 °F 35.6 °F 76% 29.96 in 10.0 mi SSE 4.6 mph - N/A   Mostly Cloudy
8:32 AM 42.8 °F 40.1 °F 35.6 °F 76% 29.97 in 10.0 mi South 4.6 mph - N/A   Scattered Clouds
8:52 AM 44.6 °F 42.2 °F 37.4 °F 76% 29.97 in 10.0 mi South 4.6 mph - N/A   Mostly Cloudy
9:12 AM 46.4 °F 44.3 °F 37.4 °F 71% 29.97 in 10.0 mi South 4.6 mph - N/A   Mostly Cloudy
9:32 AM 48.2 °F - 37.4 °F 66% 29.97 in 10.0 mi South 10.4 mph - N/A   Mostly Cloudy
9:52 AM 51.8 °F - 37.4 °F 58% 29.96 in 10.0 mi South 9.2 mph - N/A   Scattered Clouds
10:12 AM 53.6 °F - 39.2 °F 58% 29.95 in 10.0 mi South 10.4 mph - N/A   Clear
10:33 AM 55.4 °F - 37.4 °F 51% 29.95 in 10.0 mi South 15.0 mph 21.9 mph N/A   Clear
10:53 AM 57.2 °F - 39.2 °F 51% 29.94 in 10.0 mi South 12.7 mph 18.4 mph N/A   Clear
11:13 AM 57.2 °F - 39.2 °F 51% 29.93 in 10.0 mi South 13.8 mph 24.2 mph N/A   Clear
11:33 AM 59.0 °F - 39.2 °F 48% 29.93 in 10.0 mi SSW 16.1 mph 20.7 mph N/A   Clear
11:53 AM 59.0 °F - 39.2 °F 48% 29.93 in 10.0 mi SSW 13.8 mph 20.7 mph N/A   Clear
12:13 PM 59.0 °F - 39.2 °F 48% 29.94 in 10.0 mi SSW 13.8 mph 20.7 mph N/A   Clear
12:33 PM 59.0 °F - 39.2 °F 48% 29.93 in 10.0 mi South 13.8 mph 17.3 mph N/A   Clear
12:53 PM 59.0 °F - 39.2 °F 48% 29.93 in 10.0 mi South 13.8 mph - N/A   Clear
1:13 PM 62.6 °F - 39.2 °F 42% 29.93 in 10.0 mi SSW 15.0 mph 23.0 mph N/A   Clear
1:33 PM 60.8 °F - 39.2 °F 45% 29.91 in 10.0 mi SSW 12.7 mph 19.6 mph N/A   Scattered Clouds
1:54 PM 62.6 °F - 42.8 °F 48% 29.91 in 10.0 mi South 15.0 mph 20.7 mph N/A   Scattered Clouds
2:14 PM 64.4 °F - 42.8 °F 45% 29.90 in 10.0 mi SW 13.8 mph - N/A   Clear
2:34 PM 62.6 °F - 42.8 °F 48% 29.89 in 10.0 mi SSW 15.0 mph 23.0 mph N/A   Clear
2:54 PM 64.4 °F - 44.6 °F 49% 29.89 in 10.0 mi SSW 12.7 mph 20.7 mph N/A   Clear
3:14 PM 64.4 °F - 44.6 °F 49% 29.89 in 10.0 mi SSW 11.5 mph - N/A   Clear
3:34 PM 64.4 °F - 46.4 °F 52% 29.89 in 10.0 mi SW 16.1 mph 21.9 mph N/A   Scattered Clouds
3:54 PM 64.4 °F - 46.4 °F 52% 29.89 in 10.0 mi SW 15.0 mph 20.7 mph N/A   Mostly Cloudy
4:14 PM 64.4 °F - 46.4 °F 52% 29.89 in 10.0 mi SSW 10.4 mph - N/A   Mostly Cloudy
4:34 PM 66.2 °F - 46.4 °F 49% 29.88 in 10.0 mi South 13.8 mph 19.6 mph N/A   Mostly Cloudy
4:55 PM 66.2 °F - 44.6 °F 46% 29.86 in 10.0 mi South 10.4 mph - N/A   Scattered Clouds
5:15 PM 64.4 °F - 42.8 °F 45% 29.87 in 10.0 mi SSW 13.8 mph 21.9 mph N/A   Clear
5:35 PM 64.4 °F - 42.8 °F 45% 29.86 in 10.0 mi South 15.0 mph 20.7 mph N/A   Clear
5:55 PM 64.4 °F - 41.0 °F 42% 29.87 in 10.0 mi South 11.5 mph 18.4 mph N/A   Clear
6:15 PM 64.4 °F - 39.2 °F 40% 29.86 in 10.0 mi South 10.4 mph - N/A   Clear
6:35 PM 62.6 °F - 37.4 °F 39% 29.86 in 10.0 mi South 11.5 mph - N/A   Clear
6:55 PM 60.8 °F - 39.2 °F 45% 29.86 in 10.0 mi South 9.2 mph - N/A   Clear
7:15 PM 60.8 °F - 41.0 °F 48% 29.86 in 10.0 mi SSE 12.7 mph - N/A   Clear
7:35 PM 59.0 °F - 41.0 °F 51% 29.85 in 10.0 mi South 9.2 mph - N/A   Clear
8:11 PM 57.2 °F - 39.2 °F 51% 29.84 in 10.0 mi SSE 6.9 mph - N/A   Clear
8:31 PM 57.2 °F - 39.2 °F 51% 29.84 in 10.0 mi SSE 6.9 mph - N/A   Clear
8:51 PM 57.2 °F - 39.2 °F 51% 29.85 in 10.0 mi SSE 6.9 mph - N/A   Clear
9:11 PM 55.4 °F - 39.2 °F 54% 29.85 in 10.0 mi South 5.8 mph - N/A   Clear
9:31 PM 55.4 °F - 39.2 °F 54% 29.84 in 10.0 mi SSE 5.8 mph - N/A   Clear
10:11 PM 55.4 °F - 39.2 °F 54% 29.83 in 10.0 mi SE 3.5 mph - N/A   Clear
10:31 PM 55.4 °F - 39.2 °F 54% 29.81 in 10.0 mi SE 4.6 mph - N/A   Mostly Cloudy
10:51 PM 55.4 °F - 39.2 °F 54% 29.80 in 10.0 mi SE 5.8 mph - N/A   Scattered Clouds
11:12 PM 53.6 °F - 39.2 °F 58% 29.80 in 10.0 mi SSE 4.6 mph - N/A   Scattered Clouds
11:32 PM 53.6 °F - 39.2 °F 58% 29.80 in 10.0 mi SSE 4.6 mph - N/A   Clear
11:52 PM 53.6 °F - 39.2 °F 58% 29.81 in 10.0 mi South 6.9 mph - N/A   Mostly Cloudy
12:12 AM 51.8 °F - 41.0 °F 67% 29.82 in 10.0 mi South 4.6 mph - N/A Rain Light Rain
12:32 AM 53.6 °F - 41.0 °F 62% 29.81 in 10.0 mi SSE 5.8 mph - N/A   Light Drizzle